User: anonymous   Login
Location: Eimen
(51.8766°N, 9.7806°E)
Time: 18:14:37
(UTC+00:00)
Language:

Meteor 1-28 Rocket - Orbit

View from above orbital plane
View from above orbital plane
View from above satellite
View from above satellite

Ground track
Ground track

The orbit data is extracted from the following two-line orbital elements,

1 10114U 77057B   24199.93629667  .00011817  00000-0  42788-3 0  9996
2 10114  97.5123 344.5027 0009209 270.6806  89.3378 15.28514945576189
Epoch (UTC): 17 July 2024 22:28:16
Eccentricity: 0.0009209
inclination: 97.5123°
perigee height: 474 km
apogee height: 486 km
right ascension of ascending node: 344.5027°
argument of perigee: 270.6806°
revolutions per day: 15.28514945
mean anomaly at epoch: 89.3378°
orbit number at epoch: 57618

The dashed part of the orbit path shows where the satellite is in the earth's shadow,  

DLR